Regional Weather Roundup
Issued by NWS

Home | Current Version | Previous Version | Text Only | Print | Product List | Glossary Off
Versions: 1 2 3 4 5 6 7 8 9 10 11 12 13 14 15 16 17 18 19 20 21 22 23 24 25 26 27 28 29 30 31 32 33 34 35 36 37 38 39 40 41 42 43 44 45 46 47 48 49 50

000
ASUS45 KBOI 281210
RWRID

IDAHO REGIONAL WEATHER ROUNDUP
NATIONAL WEATHER SERVICE BOISE ID
600 AM MDT THU JUL 28 2016

NOTE: "FAIR" INDICATES FEW OR NO CLOUDS BELOW 12000 FEET
WITH NO SIGNIFICANT WEATHER AND/OR OBSTRUCTIONS TO VISIBILITY

IDZ012-014-281300-
SOUTHWEST IDAHO


CITY           SKY/WX    TMP DP  RH WIND       PRES   REMARKS
BOISE          CLEAR     66  45  46 CALM      30.04R
CALDWELL       CLEAR     71  46  40 SW8       30.03R
MOUNTAIN HOME  CLEAR     73  45  36 NW14      30.03R
$$

IDZ016-017-281300-
SOUTHCENTRAL IDAHO


CITY           SKY/WX    TMP DP  RH WIND       PRES   REMARKS
BURLEY         CLEAR     56  49  77 SW5       30.11R
JEROME         CLEAR     60  47  61 NE5       30.11R
TWIN FALLS     CLEAR     70  37  29 SW12      30.11R
$$

IDZ019>023-281300-
SOUTHEAST IDAHO


CITY           SKY/WX    TMP DP  RH WIND       PRES   REMARKS
IDAHO FALLS    CLEAR     55  46  71 N10       30.16R
POCATELLO      CLEAR     55  39  54 W3        30.15R
REXBURG        CLEAR     59  46  62 NE5       30.17R
$$

IDZ006-010-011-018-031-032-281300-
CENTRAL IDAHO MOUNTAINS


CITY           SKY/WX    TMP DP  RH WIND       PRES   REMARKS
MCCALL         CLEAR     54  46  74 CALM      30.20S
HAILEY         CLEAR     59  37  44 NW9       30.22S
STANLEY          N/A     41  34  76 CALM      30.33R
SALMON         CLEAR     54  45  71 CALM      30.16R
CHALLIS        CLEAR     55  36  48 W3        30.21R
$$

IDZ002-004-006-007-026-281300-
NORTHERN IDAHO


CITY           SKY/WX    TMP DP  RH WIND       PRES   REMARKS
LEWISTON       CLEAR     68  50  52 CALM      30.02R
LOWELL           N/A     61  56  83 NW3       30.09R
COEUR D`ALENE  CLEAR     63  52  67 NE9       30.07R
MULLAN PASS    CLEAR     64  42  44 CALM      30.28S
$$



USA.gov is the U.S. government's official web portal to all federal, state and local government web resources and services.